Theta_e
323 321 320 316 315 314 313 311 310 309 308 307 307 306 306 306 308 309 311 317 319 317 318 314 316 313 312 310 310 310 310 310 310 310 310 310 309 308 308 308 308 309 310
322 321 317 316 315 314 313 311 309 308 307 307 306 306 305 306 308 311 314 315 317 319 315 313 312 311 310 310 308 308 309 308 308 308 308 309 308 307 307 307 307 307 307
322 321 317 316 315 313 311 310 307 308 306 305 305 305 305 305 306 310 313 312 313 313 314 311 310 307 307 307 306 306 306 306 307 307 307 307 307 305 306 305 305 305 306
323 320 317 315 312 309 309 307 308 306 306 306 305 305 304 304 304 305 311 311 309 310 307 305 305 304 302 303 304 304 305 305 305 305 305 305 304 304 304 304 304 304 304
322 320 318 313 310 309 309 309 308 308 306 305 304 305 305 303 303 302 302 304 305 307 306 304 305 303 302 302 302 302 303 305 305 306 305 305 304 304 303 303 302 302 303
319 318 317 313 311 311 310 309 308 307 306 305 302 303 305 303 303 304 302 301 303 303 303 303 304 303 301 300 300 301 302 304 305 304 304 304 303 303 303 302 302 302 303
317 317 316 313 313 311 310 309 307 306 305 305 304 303 303 302 301 302 301 301 301 301 301 302 302 301 300 296 297 299 302 303 303 303 302 302 302 302 302 302 302 302 302
316 315 315 313 312 310 308 308 307 305 305 304 303 301 299 299 300 301 301 300 300 300 299 299 299 298 299 299 297 297 299 300 300 301 301 301 301 301 301 301 301 302 302
314 314 315 312 311 310 307 307 307 306 303 303 303 299 296 294 297 300 300 300 300 299 300 300 299 298 298 298 297 297 296 297 299 300 300 300 300 300 300 301 301 301 301
312 311 312 311 309 308 307 307 306 305 303 301 302 301 302 300 293 292 299 299 299 298 300 300 299 299 297 297 295 293 296 295 295 297 298 298 299 299 300 300 300 300 301
311 310 311 309 308 308 308 306 305 303 302 300 299 300 300 299 299 295 291 294 298 299 300 299 299 298 296 296 298 295 292 292 293 294 295 297 298 298 299 299 299 299 300
312 311 308 308 308 306 304 300 299 300 299 297 299 299 297 295 294 294 292 293 294 296 298 297 297 297 296 295 291 290 290 290 290 291 292 293 295 296 296 297 297 298 298
309 308 307 305 303 300 299 298 301 298 296 299 299 299 299 298 298 296 294 293 292 294 294 296 297 296 293 293 292 289 290 288 288 289 289 291 292 293 294 294 295 296 297
308 306 305 300 299 300 302 299 299 298 298 299 300 299 298 298 297 297 295 293 290 291 291 292 295 295 293 292 290 288 289 287 287 287 288 289 290 291 291 292 293 294 294
304 303 302 301 301 300 299 298 297 298 298 298 299 299 297 297 298 297 297 296 292 287 286 290 290 293 293 292 290 289 289 287 286 287 287 287 288 289 290 290 291 292 292
302 302 302 302 299 299 299 297 297 297 297 299 297 297 297 297 297 297 296 296 294 290 286 290 290 291 291 289 288 288 288 286 285 285 286 286 287 288 288 289 289 289 290
301 301 301 299 297 298 297 296 295 296 297 297 296 296 296 296 295 295 295 294 292 292 288 289 289 289 288 287 287 288 286 285 286 285 285 286 286 286 287 287 287 288 288
302 301 298 297 298 297 296 294 296 297 296 296 296 295 295 294 294 295 294 292 291 291 288 285 287 286 286 287 287 285 284 284 285 285 284 285 285 285 285 286 287 287 288
299 298 298 297 297 297 296 297 297 297 297 296 296 295 294 294 293 293 292 291 290 288 288 285 285 286 285 286 285 284 283 284 284 284 284 284 284 285 285 286 286 287 287
300 300 300 297 297 296 297 297 298 297 296 295 296 295 295 294 293 293 292 290 289 287 287 285 284 284 285 285 283 281 281 283 282 283 284 284 284 285 285 285 285 286 287
299 296 297 296 297 296 295 296 297 296 296 295 295 294 294 294 292 292 290 290 288 287 285 284 284 284 283 282 281 281 280 281 282 284 284 284 285 285 286 285 286 286 286
298 297 296 297 295 295 293 292 292 295 295 294 294 295 294 291 290 289 288 287 287 286 285 284 283 282 282 282 281 280 280 279 277 284 282 282 284 283 285 286 285 285 285
297 296 295 295 296 297 291 290 290 293 294 294 294 293 293 290 289 290 287 287 287 286 283 286 283 283 282 282 280 279 280 279 279 282 281 279 283 282 285 285 285 285 286
295 295 296 297 295 293 289 289 289 293 293 293 293 293 292 292 291 289 288 288 287 288 286 284 285 284 284 283 281 281 281 281 281 282 282 277 282 282 284 285 285 286 286
296 295 294 293 292 292 289 288 288 292 292 292 292 292 291 291 289 287 287 286 286 286 285 284 283 283 282 281 282 282 280 279 278 279 282 280 281 280 282 283 286 285 285
291 291 290 291 290 290 289 288 288 291 290 290 291 291 287 288 286 285 287 286 284 285 284 283 283 283 282 283 281 282 281 278 278 277 281 278 279 279 277 283 284 285 287
Wind_Speed
6 6 6 5 6 6 7 7 7 7 8 8 7 9 7 6 5 3 3 7 4 2 8 6 8 6 6 5 7 7 8 9 11 13 11 9 11 12 12 14 15 16 16
6 6 6 6 6 6 6 7 6 7 6 6 8 6 6 5 7 6 4 6 11 9 7 6 3 4 4 4 4 6 7 9 10 10 13 12 12 13 11 13 14 14 15
7 7 7 7 7 6 9 7 7 6 6 6 6 5 4 6 6 6 4 4 6 12 9 7 6 4 3 3 4 5 7 8 10 11 12 12 14 13 11 12 13 14 13
10 8 7 7 7 5 5 5 5 5 4 4 4 4 4 4 5 5 3 3 4 3 5 4 3 3 3 4 5 6 9 11 11 12 11 11 9 12 13 14 13 13 13
9 9 8 7 7 5 5 6 4 3 4 4 4 3 2 3 3 3 5 5 4 1 1 3 3 4 3 3 5 7 9 11 12 12 13 12 12 13 12 12 12 13 13
11 10 8 9 8 7 6 5 5 4 3 4 2 1 2 3 3 2 3 3 1 1 3 2 2 2 4 3 4 6 9 12 13 14 15 15 15 16 14 13 13 14 14
10 10 8 9 8 8 7 6 5 5 3 3 0 4 3 5 5 3 4 3 2 3 3 2 2 3 2 2 4 8 12 13 13 14 14 15 16 15 14 14 15 16 16
10 9 9 9 9 7 7 7 5 3 3 3 2 2 2 4 6 7 5 5 5 3 4 4 4 4 3 3 4 8 10 11 13 15 15 16 16 15 15 16 17 17 17
9 9 9 8 9 7 7 6 5 5 4 4 5 2 2 3 3 3 7 6 4 4 4 5 6 5 4 5 5 6 8 11 12 14 16 15 16 16 17 18 19 20 20
8 7 10 9 8 6 8 6 5 4 3 3 3 4 4 4 4 5 3 4 4 6 5 4 5 6 6 4 4 4 6 9 11 12 14 16 17 18 19 20 21 22 23
7 9 11 10 9 7 7 9 8 6 5 4 4 3 3 4 5 6 9 5 4 5 4 4 6 5 4 3 1 3 7 8 10 13 15 17 19 21 22 24 25 25 26
7 10 11 10 10 10 10 6 5 7 5 4 4 4 4 4 4 5 7 8 8 6 5 6 6 4 3 2 2 6 9 10 13 17 19 21 22 24 25 25 26 27 27
8 11 13 11 9 9 8 6 9 8 5 5 5 4 4 4 4 6 7 9 8 7 6 5 5 4 4 3 3 9 12 13 16 18 20 21 21 22 22 23 23 24 25
9 13 12 10 12 11 11 7 4 5 4 5 7 5 3 4 4 5 6 6 9 8 5 10 4 4 4 4 6 12 11 14 16 19 20 20 21 21 21 21 22 23 24
8 10 11 12 10 10 8 6 4 5 6 5 5 4 4 3 4 6 6 6 6 8 9 5 7 5 5 5 7 10 12 16 19 20 20 21 20 21 21 22 22 23 24
9 12 13 10 7 2 2 4 4 4 5 5 4 6 6 6 6 5 6 6 6 8 10 7 7 7 5 6 8 10 12 17 18 18 19 19 20 21 21 22 23 24 25
10 11 10 10 7 5 3 3 2 3 7 7 7 8 9 7 7 7 7 7 8 8 10 10 5 6 8 9 9 9 10 11 10 14 17 20 21 21 22 22 22 22 22
13 11 9 8 7 8 8 5 7 9 8 10 11 9 11 7 10 10 8 10 9 8 9 14 9 7 8 9 9 11 9 9 10 13 18 20 21 21 20 19 20 21 22
12 11 9 7 6 6 7 8 9 10 10 11 11 11 12 11 11 10 10 9 8 7 8 9 10 7 7 7 9 10 10 10 8 14 18 17 16 17 18 20 21 22 22
12 10 8 6 8 8 5 6 10 11 11 11 12 12 13 13 13 12 10 11 9 9 9 8 9 9 8 7 7 8 8 8 9 10 11 10 15 17 20 20 20 21 20
8 6 6 3 4 2 3 9 12 12 12 11 12 12 12 14 15 13 8 10 10 9 8 9 10 9 8 7 9 7 9 8 10 9 8 8 11 10 10 13 14 16 17
10 5 4 2 3 4 9 12 13 11 11 11 12 12 13 13 14 13 14 11 12 12 11 10 10 10 11 9 7 7 8 8 9 6 10 11 10 10 9 9 14 20 21
1 1 3 4 8 11 9 11 12 10 10 11 12 12 11 9 13 13 13 14 16 16 11 12 12 11 10 9 8 9 9 9 10 10 12 12 10 10 9 10 18 20 18
2 4 7 8 9 9 9 11 11 10 10 12 12 13 13 13 12 13 11 12 13 13 13 10 12 11 10 9 9 8 10 11 11 10 9 11 8 10 10 11 19 15 12
4 5 6 8 8 9 7 10 11 11 11 13 12 12 12 13 13 17 11 12 13 12 10 15 14 13 12 13 13 8 8 8 10 10 8 6 8 11 11 11 7 9 20
5 5 7 7 8 10 11 13 13 9 11 10 14 13 13 17 14 16 13 12 13 14 11 10 11 12 13 12 12 10 8 8 9 8 2 7 9 9 7 7 7 11 9
Wind_Direction
155 141 135 137 135 129 120 114 112 108 97 90 81 67 64 65 50 38 46 22 29 87 141 125 133 110 106 85 51 39 36 25 16 5 5 15 8 11 9 9 9 3 3
152 142 145 148 141 140 132 125 122 108 94 84 73 72 59 58 55 50 66 65 48 75 102 101 116 115 85 86 35 9 1 8 357 351 345 347 357 355 360 2 2 0 359
157 158 156 152 146 139 126 122 109 102 101 100 101 83 64 59 56 55 69 82 90 63 67 78 74 57 23 358 341 339 350 340 339 342 335 1 347 340 353 345 352 348 349
169 163 163 162 145 135 134 121 121 113 121 110 108 73 64 76 69 68 93 102 89 116 99 68 51 5 327 317 320 330 327 334 332 328 332 335 329 331 331 329 334 335 337
172 170 170 151 143 145 135 141 134 153 132 110 98 79 89 150 165 144 127 111 96 67 307 77 54 42 40 6 342 322 320 320 318 323 320 316 315 318 319 318 316 317 321
173 167 157 154 158 155 149 152 140 108 107 89 67 31 300 232 214 200 163 149 91 198 219 224 205 99 45 24 338 311 308 313 314 315 315 316 319 318 315 309 303 304 306
171 168 161 161 167 169 156 145 128 129 118 83 330 242 242 221 229 235 226 218 267 225 211 220 255 270 211 66 349 323 312 310 313 314 313 313 309 310 312 309 303 302 305
175 171 168 169 170 149 147 161 166 126 91 150 220 257 276 193 220 226 232 229 252 232 213 219 249 261 279 299 339 334 323 317 309 307 306 305 304 306 306 304 302 300 301
174 171 172 166 163 165 162 165 140 142 159 181 223 273 257 284 304 190 227 239 252 238 246 270 268 277 303 294 296 310 328 320 309 304 304 308 305 301 302 303 303 302 300
173 154 168 164 161 156 159 151 141 143 143 200 202 221 240 283 289 285 206 238 242 251 273 297 300 293 284 283 325 345 356 10 347 329 317 311 305 303 301 298 298 298 297
166 164 163 159 164 164 147 148 148 157 150 204 224 207 222 234 241 270 291 292 253 259 280 305 319 295 270 295 301 44 356 345 329 315 307 303 301 299 297 296 296 295 293
177 172 166 168 163 153 153 136 94 197 189 183 191 202 229 253 276 273 278 282 284 293 297 303 296 279 245 241 321 331 325 328 319 313 309 305 301 298 296 294 293 290 290
183 177 171 167 156 142 142 156 177 188 191 204 183 203 218 243 264 267 277 284 292 291 287 281 277 232 214 236 295 327 326 330 326 318 311 305 300 298 298 296 293 290 287
187 170 170 161 155 159 162 171 178 201 176 186 194 199 233 255 260 267 270 284 286 284 270 280 263 235 249 284 321 326 323 316 313 309 305 303 301 298 295 295 295 294 291
174 164 162 155 154 163 172 163 192 184 186 198 209 219 243 279 254 244 244 256 282 292 297 297 268 241 248 272 324 317 307 309 308 299 300 299 295 294 294 294 293 296 294
162 162 162 157 145 159 187 167 178 172 196 221 223 229 231 241 249 248 245 249 255 268 283 292 277 277 256 275 295 292 298 300 292 294 294 294 291 289 293 295 294 291 290
153 162 164 158 148 162 219 176 172 204 234 239 228 232 241 240 242 240 238 247 249 250 263 283 274 284 262 280 288 291 293 290 288 284 290 289 290 289 293 292 288 287 288
164 161 152 162 179 180 166 138 222 239 245 247 241 238 242 236 238 242 240 243 244 246 260 279 288 277 270 291 293 293 293 291 291 293 291 291 293 291 287 288 288 286 287
154 150 158 155 177 165 190 211 235 258 264 251 247 241 242 240 239 238 238 242 243 246 248 262 278 280 279 287 290 288 290 290 288 295 289 289 288 286 286 289 289 287 285
152 156 167 153 173 194 204 250 272 270 258 248 246 243 242 239 240 242 240 240 248 250 252 256 271 276 278 291 288 290 295 301 305 300 293 279 284 287 285 288 287 285 284
123 118 133 135 162 179 247 265 269 274 263 254 249 248 245 243 240 240 238 243 245 248 252 264 268 272 275 287 292 307 291 307 306 295 295 302 302 297 289 285 278 283 294
104 124 164 203 265 254 247 257 268 267 269 264 261 254 249 237 233 226 222 235 252 251 252 259 264 271 279 292 289 287 293 309 308 296 302 304 298 296 292 289 301 298 295
90 4 310 257 259 263 261 268 270 276 270 266 264 264 262 243 228 229 220 226 235 225 236 249 253 263 278 281 283 283 287 295 296 305 303 299 303 296 297 294 296 299 295
226 239 257 265 272 278 270 275 277 285 276 272 267 264 259 255 234 223 232 243 237 240 225 223 243 257 267 273 264 276 291 291 287 290 294 294 307 300 306 298 294 298 296
273 279 281 285 282 289 279 278 284 287 281 278 272 264 254 252 238 217 222 237 240 243 229 234 241 252 253 248 254 283 278 291 296 302 302 285 304 310 306 294 290 314 320
313 310 303 298 297 295 290 276 281 286 281 277 273 264 239 242 229 207 215 226 237 236 225 223 226 236 239 238 242 251 272 280 294 306 321 311 314 322 311 303 320 306 304